Time,TemperatureF,DewpointF,PressureIn,WindDirection,WindDirectionDegrees,WindSpeedMPH,WindSpeedGustMPH,Humidity,HourlyPrecipIn,Conditions,Clouds,dailyrainin,SoftwareType,DateUTC
2013-02-22 00:01:00,19.0,16.0,-100.00,SSE,155,6.0,7.0,90,0.00,,,-99.99,,2013-02-22 07:01:00,
2013-02-22 00:11:00,19.0,16.0,-100.00,SSE,150,7.0,9.0,90,0.00,,,-99.99,,2013-02-22 07:11:00,
2013-02-22 00:21:00,18.0,16.0,-100.00,SSE,150,6.0,11.0,90,0.00,,,-99.99,,2013-02-22 07:21:00,
2013-02-22 00:31:00,18.0,16.0,-100.00,SSE,150,6.0,11.0,90,0.00,,,-99.99,,2013-02-22 07:31:00,
2013-02-22 00:42:00,17.0,15.0,-100.00,SSE,155,6.0,9.0,90,0.00,,,-99.99,,2013-02-22 07:42:00,
2013-02-22 00:51:00,17.0,15.0,-100.00,SSE,150,9.0,11.0,90,0.00,,,-99.99,,2013-02-22 07:51:00,
2013-02-22 01:01:00,17.0,15.0,-100.00,South,170,6.0,11.0,90,0.00,,,-99.99,,2013-02-22 08:01:00,
2013-02-22 01:11:00,16.0,14.0,-100.00,SSE,155,7.0,9.0,90,0.00,,,-99.99,,2013-02-22 08:11:00,
2013-02-22 01:21:00,17.0,14.0,-100.00,SSE,160,7.0,11.0,90,0.00,,,-99.99,,2013-02-22 08:21:00,
2013-02-22 01:31:00,17.0,14.0,-100.00,South,170,6.0,9.0,90,0.00,,,-99.99,,2013-02-22 08:31:00,
2013-02-22 01:42:00,17.0,15.0,-100.00,South,185,4.0,8.0,90,0.00,,,-99.99,,2013-02-22 08:42:00,
2013-02-22 01:52:00,17.0,15.0,-100.00,SE,145,5.0,7.0,90,0.00,,,-99.99,,2013-02-22 08:52:00,
2013-02-22 02:03:00,18.0,15.0,-100.00,South,170,3.0,6.0,90,0.00,,,-99.99,,2013-02-22 09:03:00,
2013-02-22 02:11:00,18.0,15.0,-100.00,SSE,160,3.0,4.0,90,0.00,,,-99.99,,2013-02-22 09:11:00,
2013-02-22 02:21:00,17.0,15.0,-100.00,SSE,160,6.0,8.0,90,0.00,,,-99.99,,2013-02-22 09:21:00,
2013-02-22 02:32:00,17.0,15.0,-100.00,SSE,165,6.0,9.0,90,0.00,,,-99.99,,2013-02-22 09:32:00,
2013-02-22 02:42:00,17.0,15.0,-100.00,SSE,165,4.0,7.0,90,0.00,,,-99.99,,2013-02-22 09:42:00,
2013-02-22 02:51:00,18.0,15.0,-100.00,SSE,160,4.0,6.0,90,0.00,,,-99.99,,2013-02-22 09:51:00,
2013-02-22 03:01:00,18.0,15.0,-100.00,SSE,155,6.0,6.0,90,0.00,,,-99.99,,2013-02-22 10:01:00,
2013-02-22 03:11:00,18.0,16.0,-100.00,SSE,160,3.0,6.0,90,0.00,,,-99.99,,2013-02-22 10:11:00,
2013-02-22 03:21:00,18.0,16.0,-100.00,SSE,160,4.0,6.0,90,0.00,,,-99.99,,2013-02-22 10:21:00,
2013-02-22 03:32:00,18.0,16.0,-100.00,SSE,155,2.0,4.0,90,0.00,,,-99.99,,2013-02-22 10:32:00,
2013-02-22 03:42:00,18.0,16.0,-100.00,SSE,150,3.0,4.0,90,0.00,,,-99.99,,2013-02-22 10:42:00,
2013-02-22 03:51:00,18.0,16.0,-100.00,SSE,150,3.0,4.0,90,0.00,,,-99.99,,2013-02-22 10:51:00,
2013-02-22 04:01:00,17.0,15.0,-100.00,SSE,160,4.0,4.0,90,0.00,,,-99.99,,2013-02-22 11:01:00,
2013-02-22 04:11:00,17.0,15.0,-100.00,SSE,155,4.0,6.0,90,0.00,,,-99.99,,2013-02-22 11:11:00,
2013-02-22 04:21:00,17.0,15.0,-100.00,SSE,160,5.0,6.0,90,0.00,,,-99.99,,2013-02-22 11:21:00,
2013-02-22 04:32:00,17.0,14.0,-100.00,SSE,155,4.0,6.0,91,0.00,,,-99.99,,2013-02-22 11:32:00,
2013-02-22 04:42:00,16.0,14.0,-100.00,SSE,155,4.0,6.0,91,0.00,,,-99.99,,2013-02-22 11:42:00,
2013-02-22 04:52:00,16.0,14.0,-100.00,SSE,160,3.0,4.0,91,0.00,,,-99.99,,2013-02-22 11:52:00,
2013-02-22 05:02:00,15.0,13.0,-100.00,SSE,165,4.0,6.0,91,0.00,,,-99.99,,2013-02-22 12:02:00,
2013-02-22 05:11:00,14.0,12.0,-100.00,South,185,4.0,5.0,91,0.00,,,-99.99,,2013-02-22 12:11:00,
2013-02-22 05:22:00,14.0,12.0,-100.00,SE,130,1.0,4.0,91,0.00,,,-99.99,,2013-02-22 12:22:00,
2013-02-22 05:32:00,14.0,12.0,-100.00,South,170,3.0,4.0,91,0.00,,,-99.99,,2013-02-22 12:32:00,
2013-02-22 05:42:00,15.0,13.0,-100.00,SE,140,2.0,6.0,91,0.00,,,-99.99,,2013-02-22 12:42:00,
2013-02-22 05:52:00,15.0,13.0,-100.00,SSE,150,3.0,5.0,91,0.00,,,-99.99,,2013-02-22 12:52:00,
2013-02-22 06:02:00,15.0,13.0,-100.00,SSE,155,3.0,6.0,91,0.00,,,-99.99,,2013-02-22 13:02:00,
2013-02-22 06:11:00,14.0,12.0,-100.00,SSE,155,3.0,6.0,91,0.00,,,-99.99,,2013-02-22 13:11:00,
2013-02-22 06:22:00,14.0,12.0,-100.00,SSE,160,3.0,5.0,91,0.00,,,-99.99,,2013-02-22 13:22:00,
2013-02-22 06:32:00,14.0,12.0,-100.00,SSE,155,4.0,4.0,91,0.00,,,-99.99,,2013-02-22 13:32:00,
2013-02-22 06:42:00,15.0,13.0,-100.00,SSE,150,4.0,6.0,91,0.00,,,-99.99,,2013-02-22 13:42:00,
2013-02-22 06:52:00,15.0,13.0,-100.00,SSE,150,3.0,5.0,91,0.00,,,-99.99,,2013-02-22 13:52:00,
2013-02-22 07:01:00,15.0,13.0,-100.00,SSE,150,2.0,4.0,91,0.00,,,-99.99,,2013-02-22 14:01:00,
2013-02-22 07:11:00,15.0,13.0,-100.00,SSE,155,3.0,5.0,91,0.00,,,-99.99,,2013-02-22 14:11:00,
2013-02-22 07:21:00,15.0,13.0,-100.00,East,100,1.0,5.0,91,0.00,,,-99.99,,2013-02-22 14:21:00,
2013-02-22 07:32:00,16.0,14.0,-100.00,SE,135,2.0,5.0,91,0.00,,,-99.99,,2013-02-22 14:32:00,
2013-02-22 07:42:00,16.0,14.0,-100.00,East,85,2.0,6.0,91,0.00,,,-99.99,,2013-02-22 14:42:00,
2013-02-22 07:52:00,17.0,15.0,-100.00,East,95,2.0,5.0,91,0.00,,,-99.99,,2013-02-22 14:52:00,
2013-02-22 08:01:00,17.0,15.0,-100.00,SSE,160,2.0,3.0,91,0.00,,,-99.99,,2013-02-22 15:01:00,
2013-02-22 08:11:00,17.0,15.0,-100.00,SE,140,0.0,5.0,91,0.00,,,-99.99,,2013-02-22 15:11:00,
2013-02-22 08:21:00,19.0,17.0,-100.00,SSE,150,3.0,4.0,91,0.00,,,-99.99,,2013-02-22 15:21:00,
2013-02-22 08:32:00,19.0,17.0,-100.00,East,95,4.0,6.0,91,0.00,,,-99.99,,2013-02-22 15:32:00,
2013-02-22 08:42:00,18.0,16.0,-100.00,East,95,1.0,5.0,90,0.00,,,-99.99,,2013-02-22 15:42:00,
2013-02-22 08:52:00,19.0,16.0,-100.00,East,80,0.0,2.0,89,0.00,,,-99.99,,2013-02-22 15:52:00,
2013-02-22 09:01:00,21.0,18.0,-100.00,ENE,70,3.0,4.0,88,0.00,,,-99.99,,2013-02-22 16:01:00,
2013-02-22 09:12:00,22.0,18.0,-100.00,East,100,3.0,4.0,85,0.00,,,-99.99,,2013-02-22 16:12:00,
2013-02-22 09:22:00,22.0,18.0,-100.00,ESE,105,1.0,3.0,82,0.00,,,-99.99,,2013-02-22 16:22:00,
2013-02-22 09:32:00,22.0,17.0,-100.00,South,175,1.0,3.0,79,0.00,,,-99.99,,2013-02-22 16:32:00,
2013-02-22 09:42:00,23.0,17.0,-100.00,SE,140,0.0,3.0,77,0.00,,,-99.99,,2013-02-22 16:42:00,
2013-02-22 09:52:00,24.0,17.0,-100.00,SE,145,0.0,1.0,75,0.00,,,-99.99,,2013-02-22 16:52:00,
2013-02-22 10:01:00,24.0,17.0,-100.00,SSE,155,3.0,4.0,72,0.00,,,-99.99,,2013-02-22 17:01:00,
2013-02-22 10:11:00,25.0,17.0,-100.00,SSE,160,0.0,3.0,70,0.00,,,-99.99,,2013-02-22 17:11:00,
2013-02-22 10:21:00,25.0,16.0,-100.00,ENE,65,1.0,2.0,69,0.00,,,-99.99,,2013-02-22 17:21:00,
2013-02-22 10:32:00,27.0,18.0,-100.00,North,350,1.0,2.0,68,0.00,,,-99.99,,2013-02-22 17:32:00,
2013-02-22 10:42:00,24.0,15.0,-100.00,WNW,285,3.0,7.0,65,0.00,,,-99.99,,2013-02-22 17:42:00,
2013-02-22 10:52:00,25.0,15.0,-100.00,WNW,295,5.0,7.0,66,0.00,,,-99.99,,2013-02-22 17:52:00,
2013-02-22 11:01:00,25.0,15.0,-100.00,WNW,290,6.0,7.0,66,0.00,,,-99.99,,2013-02-22 18:01:00,
2013-02-22 11:12:00,26.0,16.0,-100.00,WNW,285,7.0,9.0,65,0.00,,,-99.99,,2013-02-22 18:12:00,
2013-02-22 11:22:00,26.0,16.0,-100.00,WNW,285,9.0,11.0,65,0.00,,,-99.99,,2013-02-22 18:22:00,
2013-02-22 11:32:00,26.0,15.0,-100.00,WNW,285,10.0,11.0,63,0.00,,,-99.99,,2013-02-22 18:32:00,
2013-02-22 11:42:00,26.0,16.0,-100.00,WNW,285,9.0,12.0,63,0.00,,,-99.99,,2013-02-22 18:42:00,
2013-02-22 11:51:00,28.0,16.0,-100.00,WNW,285,9.0,12.0,61,0.00,,,-99.99,,2013-02-22 18:51:00,
2013-02-22 12:01:00,29.0,16.0,-100.00,WNW,285,7.0,10.0,58,0.00,,,-99.99,,2013-02-22 19:01:00,
2013-02-22 12:11:00,28.0,15.0,-100.00,NNW,335,6.0,12.0,58,0.00,,,-99.99,,2013-02-22 19:11:00,
2013-02-22 12:21:00,28.0,15.0,-100.00,West,280,7.0,13.0,58,0.00,,,-99.99,,2013-02-22 19:21:00,
2013-02-22 12:31:00,27.0,15.0,-100.00,WNW,295,9.0,13.0,59,0.00,,,-99.99,,2013-02-22 19:31:00,
2013-02-22 12:41:00,28.0,15.0,-100.00,WNW,290,9.0,13.0,58,0.00,,,-99.99,,2013-02-22 19:41:00,
2013-02-22 12:52:00,28.0,15.0,-100.00,WNW,295,11.0,16.0,58,0.00,,,-99.99,,2013-02-22 19:52:00,
2013-02-22 13:01:00,28.0,14.0,-100.00,West,280,7.0,14.0,56,0.00,,,-99.99,,2013-02-22 20:01:00,
2013-02-22 13:11:00,28.0,15.0,-100.00,WNW,300,11.0,14.0,57,0.00,,,-99.99,,2013-02-22 20:11:00,
2013-02-22 13:21:00,28.0,17.0,-100.00,West,280,11.0,16.0,63,0.00,,,-99.99,,2013-02-22 20:21:00,
2013-02-22 13:32:00,27.0,18.0,-100.00,WNW,300,11.0,16.0,68,0.00,,,-99.99,,2013-02-22 20:32:00,
2013-02-22 13:41:00,26.0,18.0,-100.00,West,280,11.0,14.0,70,0.00,,,-99.99,,2013-02-22 20:41:00,
2013-02-22 13:52:00,26.0,18.0,-100.00,WNW,285,11.0,15.0,70,0.00,,,-99.99,,2013-02-22 20:52:00,
2013-02-22 14:01:00,27.0,18.0,-100.00,WNW,295,9.0,16.0,69,0.00,,,-99.99,,2013-02-22 21:01:00,
2013-02-22 14:11:00,27.0,18.0,-100.00,West,280,12.0,17.0,67,0.00,,,-99.99,,2013-02-22 21:11:00,
2013-02-22 14:21:00,27.0,17.0,-100.00,WNW,285,9.0,16.0,63,0.00,,,-99.99,,2013-02-22 21:21:00,
2013-02-22 14:32:00,28.0,16.0,-100.00,WNW,295,7.0,17.0,61,0.00,,,-99.99,,2013-02-22 21:32:00,
2013-02-22 14:42:00,28.0,15.0,-100.00,WNW,300,9.0,14.0,56,0.00,,,-99.99,,2013-02-22 21:42:00,
2013-02-22 14:52:00,29.0,13.0,-100.00,West,275,9.0,16.0,52,0.00,,,-99.99,,2013-02-22 21:52:00,
2013-02-22 15:01:00,29.0,13.0,-100.00,WNW,295,6.0,17.0,49,0.00,,,-99.99,,2013-02-22 22:01:00,
2013-02-22 15:11:00,30.0,12.0,-100.00,West,280,10.0,17.0,47,0.00,,,-99.99,,2013-02-22 22:11:00,
2013-02-22 15:21:00,31.0,12.0,-100.00,West,280,12.0,19.0,45,0.00,,,-99.99,,2013-02-22 22:21:00,
2013-02-22 15:31:00,31.0,12.0,-100.00,WNW,285,7.0,14.0,44,0.00,,,-99.99,,2013-02-22 22:31:00,
2013-02-22 15:41:00,31.0,11.0,-100.00,WNW,295,9.0,14.0,44,0.00,,,-99.99,,2013-02-22 22:41:00,
2013-02-22 15:51:00,31.0,12.0,-100.00,NW,315,5.0,17.0,44,0.00,,,-99.99,,2013-02-22 22:51:00,
2013-02-22 16:01:00,31.0,10.0,-100.00,WNW,285,12.0,16.0,42,0.00,,,-99.99,,2013-02-22 23:01:00,
2013-02-22 16:11:00,31.0,10.0,-100.00,West,280,8.0,15.0,40,0.00,,,-99.99,,2013-02-22 23:11:00,
2013-02-22 16:21:00,31.0,9.0,-100.00,WNW,290,7.0,12.0,38,0.00,,,-99.99,,2013-02-22 23:21:00,
2013-02-22 16:31:00,31.0,8.0,-100.00,WNW,290,8.0,15.0,38,0.00,,,-99.99,,2013-02-22 23:31:00,
2013-02-22 16:41:00,28.0,7.0,-100.00,WNW,295,7.0,11.0,39,0.00,,,-99.99,,2013-02-22 23:41:00,
2013-02-22 16:52:00,28.0,7.0,-100.00,West,280,6.0,12.0,41,0.00,,,-99.99,,2013-02-22 23:52:00,
2013-02-22 17:01:00,27.0,7.0,-100.00,WSW,250,1.0,6.0,42,0.00,,,-99.99,,2013-02-23 00:01:00,
2013-02-22 17:11:00,26.0,7.0,-100.00,SW,230,4.0,7.0,42,0.00,,,-99.99,,2013-02-23 00:11:00,
2013-02-22 17:21:00,26.0,6.0,-100.00,West,270,6.0,9.0,42,0.00,,,-99.99,,2013-02-23 00:21:00,
2013-02-22 17:32:00,26.0,6.0,-100.00,SSW,205,4.0,6.0,42,0.00,,,-99.99,,2013-02-23 00:32:00,
2013-02-22 17:42:00,25.0,6.0,-100.00,SW,225,2.0,7.0,42,0.00,,,-99.99,,2013-02-23 00:42:00,
2013-02-22 17:51:00,25.0,6.0,-100.00,West,260,3.0,6.0,42,0.00,,,-99.99,,2013-02-23 00:51:00,
2013-02-22 18:01:00,24.0,5.0,-100.00,SSW,195,4.0,7.0,42,0.00,,,-99.99,,2013-02-23 01:01:00,
2013-02-22 18:11:00,24.0,5.0,-100.00,South,175,2.0,5.0,43,0.00,,,-99.99,,2013-02-23 01:11:00,
2013-02-22 18:21:00,22.0,4.0,-100.00,SSW,210,2.0,4.0,45,0.00,,,-99.99,,2013-02-23 01:21:00,
2013-02-22 18:32:00,22.0,4.0,-100.00,South,175,2.0,2.0,46,0.00,,,-99.99,,2013-02-23 01:32:00,
2013-02-22 18:42:00,20.0,4.0,-100.00,South,175,2.0,3.0,48,0.00,,,-99.99,,2013-02-23 01:42:00,
2013-02-22 18:51:00,19.0,4.0,-100.00,SW,220,0.0,4.0,50,0.00,,,-99.99,,2013-02-23 01:51:00,
2013-02-22 19:01:00,18.0,3.0,-100.00,South,180,0.0,0.0,52,0.00,,,-99.99,,2013-02-23 02:01:00,
2013-02-22 19:11:00,17.0,3.0,-100.00,South,175,0.0,0.0,54,0.00,,,-99.99,,2013-02-23 02:11:00,
2013-02-22 19:21:00,16.0,3.0,-100.00,SSE,160,0.0,0.0,57,0.00,,,-99.99,,2013-02-23 02:21:00,
2013-02-22 19:31:00,15.0,4.0,-100.00,South,180,4.0,7.0,60,0.00,,,-99.99,,2013-02-23 02:31:00,
2013-02-22 19:42:00,14.0,4.0,-100.00,SSE,165,6.0,8.0,62,0.00,,,-99.99,,2013-02-23 02:42:00,
2013-02-22 19:52:00,14.0,3.0,-100.00,SSE,160,6.0,9.0,63,0.00,,,-99.99,,2013-02-23 02:52:00,
2013-02-22 20:01:00,13.0,3.0,-100.00,South,170,6.0,9.0,64,0.00,,,-99.99,,2013-02-23 03:01:00,
2013-02-22 20:11:00,12.0,3.0,-100.00,South,185,5.0,8.0,65,0.00,,,-99.99,,2013-02-23 03:11:00,
2013-02-22 20:21:00,11.0,2.0,-100.00,South,175,4.0,7.0,66,0.00,,,-99.99,,2013-02-23 03:21:00,
2013-02-22 20:32:00,11.0,2.0,-100.00,South,175,4.0,7.0,66,0.00,,,-99.99,,2013-02-23 03:32:00,
2013-02-22 20:41:00,10.0,2.0,-100.00,SSE,160,4.0,7.0,68,0.00,,,-99.99,,2013-02-23 03:41:00,
2013-02-22 20:51:00,10.0,2.0,-100.00,SSE,165,4.0,7.0,69,0.00,,,-99.99,,2013-02-23 03:51:00,
2013-02-22 21:01:00,10.0,2.0,-100.00,South,170,3.0,6.0,70,0.00,,,-99.99,,2013-02-23 04:01:00,
2013-02-22 21:11:00,9.0,2.0,-100.00,SSE,165,6.0,7.0,71,0.00,,,-99.99,,2013-02-23 04:11:00,
2013-02-22 21:21:00,8.0,1.0,-100.00,South,175,4.0,7.0,72,0.00,,,-99.99,,2013-02-23 04:21:00,
2013-02-22 21:31:00,8.0,1.0,-100.00,South,170,5.0,9.0,73,0.00,,,-99.99,,2013-02-23 04:31:00,
2013-02-22 21:41:00,6.0,0.0,-100.00,SSE,155,4.0,7.0,74,0.00,,,-99.99,,2013-02-23 04:41:00,
2013-02-22 21:51:00,7.0,1.0,-100.00,SSE,165,6.0,9.0,75,0.00,,,-99.99,,2013-02-23 04:51:00,
2013-02-22 22:03:00,6.0,0.0,-100.00,SSE,160,6.0,9.0,76,0.00,,,-99.99,,2013-02-23 05:03:00,
2013-02-22 22:12:00,6.0,0.0,-100.00,SSE,160,5.0,8.0,77,0.00,,,-99.99,,2013-02-23 05:12:00,
2013-02-22 22:22:00,4.0,-1.0,-100.00,SE,145,4.0,7.0,77,0.00,,,-99.99,,2013-02-23 05:22:00,
2013-02-22 22:32:00,7.0,1.0,-100.00,SSE,160,6.0,8.0,78,0.00,,,-99.99,,2013-02-23 05:32:00,
2013-02-22 22:41:00,6.0,1.0,-100.00,South,180,4.0,8.0,79,0.00,,,-99.99,,2013-02-23 05:41:00,
2013-02-22 22:52:00,6.0,1.0,-100.00,SSE,165,5.0,8.0,79,0.00,,,-99.99,,2013-02-23 05:52:00,
2013-02-22 23:01:00,6.0,1.0,-100.00,SSE,160,6.0,8.0,79,0.00,,,-99.99,,2013-02-23 06:01:00,
2013-02-22 23:11:00,6.0,2.0,-100.00,SSE,165,4.0,9.0,80,0.00,,,-99.99,,2013-02-23 06:11:00,
2013-02-22 23:22:00,6.0,2.0,-100.00,South,175,5.0,9.0,80,0.00,,,-99.99,,2013-02-23 06:22:00,
2013-02-22 23:32:00,6.0,1.0,-100.00,SSE,155,7.0,9.0,80,0.00,,,-99.99,,2013-02-23 06:32:00,
2013-02-22 23:41:00,6.0,1.0,-100.00,SSE,155,6.0,11.0,80,0.00,,,-99.99,,2013-02-23 06:41:00,
2013-02-22 23:51:00,6.0,1.0,-100.00,SSE,165,5.0,8.0,80,0.00,,,-99.99,,2013-02-23 06:51:00,